Regional Weather Roundup
Issued by NWS Sterling, VA

Home | Current Version | Previous Version | Text Only | Print | Product List | Glossary Off
Versions: 1 2 3 4 5 6 7 8 9 10 11 12 13 14 15 16 17 18 19 20 21 22 23 24 25 26 27

000
ASUS41 KLWX 231611
RWRLWX

REGIONAL WEATHER ROUNDUP
NATIONAL WEATHER SERVICE BALTIMORE MD/WASHINGTON DC
1200 PM EDT SUN JUL 23 2017

Note: "FAIR" indicates few or no clouds below 12,000 feet
with no significant weather and/or obstructions to visibility.
 TC=TEMPERATURE CELSIUS

 * =Non NWS site. Station does not report precipitation (e.g. rain,
    snow, etc.), thunder, or fog.

DCZ001-MDZ009-015-VAZ040>042-051-053>054-231700-
WASHINGTON METRO

CITY           SKY/WX    TMP DP  RH WIND       PRES   REMARKS
WASHINGTON NAT PTSUNNY   88  72  58 W12       29.81R HX  94
DULLES         PTSUNNY   86  72  62 W9        29.81S HX  92
ANDREWS AFB    MOSUNNY   86  73  66 W6        29.81R HX  93
FT BELVOIR     MOSUNNY   86  73  65 NW3       29.81R HX  93
QUANTICO       CLOUDY    85  78  80 SW6       29.83R HX  96
COLLEGE PARK*  MOSUNNY   86  72  64 W7        29.81R HX  92
LEESBURG*      PTSUNNY   88  75  66 W8        29.83S HX  97
MANASSAS*      MOSUNNY   83  76  79 SW6       29.83R HX  91
GAITHERSBURG*  PTSUNNY   84  74  71 W8        29.84R HX  91

$$

MDZ006>007-011-014-231700-
BALTIMORE METRO

CITY           SKY/WX    TMP DP  RH WIND       PRES   REMARKS
BWI AIRPORT    PTSUNNY   88  72  58 W6        29.79S HX  94
MD SCIENCE CTR   N/A     92  71  50 MISG      29.79R HX  98
MARTIN STATE   PTSUNNY   88  75  66 NE3       29.80R HX  97
ANNAPOLIS      PTSUNNY   86  77  74 CALM      29.79R HX  97
FORT MEADE*      N/A     86  73  66 W9        29.83R HX  93

$$

MDZ012-015-019>023-231700-
MARYLAND EASTERN SHORE

CITY           SKY/WX    TMP DP  RH WIND       PRES   REMARKS
OCEAN CITY     MOSUNNY   88  76  67 NW7       29.79S HX  99
SALISBURY      NOT AVBL
BAY BRIDGE AP* MOSUNNY   84  75  74 W6        29.80R HX  92
CAMBRIDGE*     MOSUNNY   84  73  70 NW8       29.80S HX  91
EASTON*        MOSUNNY   86  75  70 NW3       29.83S HX  95

$$

MDZ017>025-231700-
SOUTHERN MARYLAND

CITY           SKY/WX    TMP DP  RH WIND       PRES   REMARKS
PATUXENT RIVER CLOUDY    85  76  74 NW3       29.80F HX  94
ST INIGOES     CLOUDY    83  77  82 W5        29.80S HX  92
LEONARDTOWN*   CLOUDY    82  73  74 SW5       29.83S

$$

MDZ003>005-231700-
NORTH CENTRAL MARYLAND

CITY           SKY/WX    TMP DP  RH WIND       PRES   REMARKS
FREDERICK*     PTSUNNY   86  70  58 W9        29.84R HX  90
HAGERSTOWN APT PTSUNNY   84  73  69 SW10      29.82S HX  90
WESTMINSTER*   MOSUNNY   86  72  62 W8        29.83R HX  92

$$

MDZ501>502-231700-
WESTERN MARYLAND

CITY           SKY/WX    TMP DP  RH WIND       PRES   REMARKS
OAKLAND*       CLOUDY    64  64 100 W9        29.92S
CUMBERLAND*    CLOUDY    82  72  69 SW5       29.87S

$$

VAZ025>031-231700-
SHENANDOAH VALLEY

CITY           SKY/WX    TMP DP  RH WIND       PRES   REMARKS
WINCHESTER*    CLOUDY    79  68  69 W7        29.84S
FRONT ROYAL*   CLOUDY    79  72  78 S3        29.84R
LURAY*         CLOUDY    81  73  78 CALM      29.86S
NEW MARKET*    CLOUDY    80  73  78 CALM      29.84F
STAUNTON*      CLOUDY    81  67  62 S6        29.90S
WAYNESBORO*    CLOUDY    77  69  77 SW5       29.90S

$$

WVZ021-048>050-054>055-231700-
EASTERN WEST VIRGINIA PANHANDLE

CITY           SKY/WX    TMP DP  RH WIND       PRES   REMARKS
MARTINSBURG    CLOUDY    82  70  66 W13       29.82R
PETERSBURG*    CLOUDY    83  69  60 CALM      29.85F

$$

VAZ036>039-050-231700-
CENTRAL FOOTHILLS

CITY           SKY/WX    TMP DP  RH WIND       PRES   REMARKS
CHARLOTTESVILL CLOUDY    84  71  65 SE5       29.84F
CULPEPER*      CLOUDY    83  76  80 CALM      29.84S HX  91
ORANGE*        CLOUDY    82  73  74 SW7       29.85R
GORDONSVILLE*  CLOUDY    83  75  76 SW5       29.84R HX  90
WARRENTON*     CLOUDY    83  74  73 S3        29.83R HX  90

$$

VAZ055>057-231700-
NORTH AND CENTRAL PIEDMONT

CITY           SKY/WX    TMP DP  RH WIND       PRES   REMARKS
FREDERICKSBRG*   N/A     83  80  90 MISG      29.82R HX  96
STAFFORD*      CLOUDY    82  78  90 W6        29.87R HX  91

$$

NCZ024-NYZ072-PAZ021-071-VAZ022-071-231700-
OTHER REGIONAL OBSERVATIONS

CITY           SKY/WX    TMP DP  RH WIND       PRES   REMARKS
NEW YORK CITY  CLOUDY    76  69  79 E5        29.84S
PHILADELPHIA   CLOUDY    82  71  69 E9        29.79S
PITTSBURGH     CLOUDY    80  72  76 SW9       29.83S
ROANOKE        CLOUDY    86  66  51 SW6       29.90F
RICHMOND       PTSUNNY   90  71  53 W8        29.83S HX  96
RALEIGH        PTSUNNY   94  76  55 W9        29.89S HX 106

$$

ANZ530>537-231700-
MARINE OBSERVATIONS

STATION/POSITION TIME  TEMP    WIND        PRES
                       AIR SEA DIR/SP/G
                 (UTC) (F)     (DEG/KT/KT) (MB)
THOMAS PT LIGHT  1600   82 83  200/  1/  2   N/A
BALT KEY BRIDGE  1548   85      90/  2/  2 1008.6R
COVE POINT       1548   83     330/  6/  8 1009.8S
LEWISETTA        1548   82 86  250/  7/  9 1009.5F
SOLOMONS ISLAND  1548   84 84  360/  3/  3   N/A
PINEY POINT      1536           10/  1/  2   N/A

$$





USA.gov is the U.S. government's official web portal to all federal, state and local government web resources and services.